DW9371 Weather Reports


time (UTC)temp
C
wind
direction
speed
KPH
gust
KPH
rain 1hr
cm
rain 24hr
cm
rain mn
cm
humidity
%
barometer
mb
20260510200604 10 338 1.6 8.0 0.00 0.00 0.00 3 1014.0
20260510200105 10 0 1.6 9.7 0.00 0.00 0.00 3 1014.0
20260510190604 10 52 1.6 4.8 0.00 0.00 0.00 3 1013.6
20260510190106 10 56 3.2 20.9 0.00 0.00 0.00 3 1013.6
20260510180604 10 65 3.2 20.9 0.00 0.00 0.00 3 1013.6
20260510170604 10 344 4.8 12.9 0.00 0.00 0.00 3 1013.9
20260510170106 10 339 4.8 25.7 0.00 0.00 0.00 3 1013.9
20260510160604 10 336 3.2 14.5 0.00 0.00 0.00 3 1014.4
20260510160106 10 18 6.4 20.9 0.00 0.00 0.00 3 1014.4
20260510150604 10 8 3.2 12.9 0.00 0.00 0.00 3 1014.9
20260510150106 10 50 8.0 22.5 0.00 0.00 0.00 3 1014.9
20260510140604 10 68 6.4 19.3 0.00 0.00 0.00 3 1015.4
20260510140106 10 59 8.0 25.7 0.00 0.00 0.00 3 1015.4
20260510130604 10 329 4.8 11.3 0.00 0.00 0.00 3 1015.4
20260510130106 10 12 6.4 24.1 0.00 0.00 0.00 3 1015.4
20260510120604 10 46 3.2 19.3 0.00 0.00 0.00 3 1015.8
20260510120106 10 14 6.4 22.5 0.00 0.00 0.00 3 1015.8
20260510110604 10 12 6.4 16.1 0.00 0.00 0.00 3 1016.4
20260510110106 10 48 4.8 25.7 0.00 0.00 0.00 3 1016.4
20260510100604 10 58 9.7 22.5 0.00 0.00 0.00 3 1016.8
20260510100106 10 58 6.4 32.2 0.00 0.00 0.00 3 1016.8
20260510090105 10 63 11.3 22.5 0.00 0.00 0.00 3 1017.0
20260510080603 10 161 4.8 19.3 0.00 0.00 0.00 3 1017.2
20260510080111 10 53 3.2 27.4 0.00 0.00 0.00 3 1017.2
20260510060603 10 0 4.8 11.3 0.00 0.00 0.00 3 1016.6
20260510050604 10 52 1.6 11.3 0.00 0.00 0.00 3 1016.9
20260510050105 10 59 1.6 12.9 0.00 0.00 0.00 3 1016.8
20260510040603 10 329 1.6 8.0 0.00 0.00 0.00 3 1016.9
20260510030604 10 41 1.6 4.8 0.00 0.00 0.00 3 1017.1
20260510030105 10 58 0.0 19.3 0.00 0.00 0.00 3 1017.2
20260510020603 10 244 1.6 11.3 0.00 0.00 0.00 3 1017.1
20260510020105 10 54 3.2 16.1 0.00 0.00 0.00 3 1017.0
20260510010105 10 61 3.2 9.7 0.00 0.00 0.00 3 1016.8
20260510000604 10 11 0.0 9.7 0.00 0.00 0.00 3 1016.9
20260510000105 10 9 0.0 8.0 0.00 0.00 0.00 3 1016.9
20260509230604 10 328 3.2 8.0 0.00 0.00 0.00 3 1016.6
20260509230106 10 350 3.2 9.7 0.00 0.00 0.00 3 1016.6
20260509220604 10 40 1.6 4.8 0.00 0.00 0.00 3 1016.2
20260509220106 10 327 1.6 9.7 0.00 0.00 0.00 3 1016.3
20260509210603 10 333 1.6 4.8 0.00 0.00 0.00 3 1016.0
20260509210106 10 333 1.6 9.7 0.00 0.00 0.00 3 1016.0